LPA727 UGTB-UWWW

Flight info

Callsign LPA727
Flight time N/A
Altitude 38000
Route K0850F400 LAPTO1D LAPTO N82 NIRGA/K0850F398 R807 AMTEG/K0843F370 R807 UROBO P135 TUNIG TUNIG2F
Aircraft A320/M-SDE3FGHIRWY/LB1

Departure

Time 2026-04-24 19:13
Airport Tbilisi International Airport (UGTB)

Arrival

Time N/A
Airport Kurumoch International Airport (UWWW)
Time Latitude Longitude Altitude Speed Heading
2026-04-24 18:54 41.66981 44.96221 1527 ft 0 kts 43°
2026-04-24 18:57 41.66972 44.96209 1526 ft 2 kts 44°
2026-04-24 18:57 41.66960 44.96193 1520 ft 2 kts 45°
2026-04-24 18:58 41.66949 44.96177 1518 ft 2 kts 48°
2026-04-24 18:58 41.66938 44.96160 1518 ft 2 kts 55°
2026-04-24 18:58 41.66930 44.96141 1520 ft 2 kts 86°
2026-04-24 18:58 41.66933 44.96122 1518 ft 1 kts 132°
2026-04-24 18:59 41.66935 44.96119 1519 ft 0 kts 133°
2026-04-24 19:01 41.66933 44.96122 1519 ft 4 kts 132°
2026-04-24 19:02 41.66915 44.96148 1521 ft 4 kts 132°
2026-04-24 19:02 41.66881 44.96205 1521 ft 7 kts 131°
2026-04-24 19:02 41.66850 44.96251 1523 ft 6 kts 133°
2026-04-24 19:02 41.66826 44.96286 1523 ft 4 kts 133°
2026-04-24 19:03 41.66808 44.96311 1523 ft 4 kts 134°
2026-04-24 19:03 41.66776 44.96355 1523 ft 9 kts 134°
2026-04-24 19:03 41.66736 44.96409 1525 ft 7 kts 142°
2026-04-24 19:03 41.66694 44.96429 1525 ft 7 kts 176°
2026-04-24 19:04 41.66633 44.96413 1522 ft 9 kts 194°
2026-04-24 19:04 41.66571 44.96393 1525 ft 9 kts 192°
2026-04-24 19:04 41.66504 44.96373 1527 ft 11 kts 193°
2026-04-24 19:04 41.66433 44.96350 1520 ft 3 kts 194°
2026-04-24 19:05 41.66379 44.96332 1524 ft 14 kts 194°
2026-04-24 19:05 41.66271 44.96300 1525 ft 16 kts 187°
2026-04-24 19:05 41.66184 44.96315 1524 ft 12 kts 161°
2026-04-24 19:05 41.66113 44.96375 1524 ft 10 kts 137°
2026-04-24 19:06 41.66109 44.96379 1525 ft 0 kts 136°
2026-04-24 19:07 41.66057 44.96446 1526 ft 19 kts 135°
2026-04-24 19:07 41.65961 44.96569 1520 ft 13 kts 139°
2026-04-24 19:07 41.65897 44.96601 1522 ft 9 kts 183°
2026-04-24 19:08 41.65871 44.96587 1519 ft 0 kts 214°
2026-04-24 19:11 41.65861 44.96574 1522 ft 8 kts 225°
2026-04-24 19:11 41.65845 44.96473 1525 ft 13 kts 281°
2026-04-24 19:11 41.65877 44.96411 1525 ft 0 kts 317°
2026-04-24 19:12 41.65892 44.96393 1525 ft 17 kts 317°
2026-04-24 19:13 41.66055 44.96193 1522 ft 78 kts 317°
2026-04-24 19:13 41.66935 44.95082 1576 ft 171 kts 317°
2026-04-24 19:13 41.67829 44.93971 2134 ft 176 kts 319°
2026-04-24 19:13 41.68718 44.92877 2924 ft 172 kts 318°
2026-04-24 19:14 41.69605 44.91780 3562 ft 181 kts 317°
2026-04-24 19:14 41.70590 44.90560 3876 ft 205 kts 316°
2026-04-24 19:14 41.71693 44.89188 4294 ft 229 kts 316°
2026-04-24 19:14 41.72898 44.87686 4965 ft 241 kts 315°
2026-04-24 19:15 41.74137 44.86145 5882 ft 244 kts 315°
2026-04-24 19:15 41.75475 44.84720 6788 ft 249 kts 323°
2026-04-24 19:15 41.76984 44.83525 7601 ft 255 kts 327°
2026-04-24 19:15 41.78577 44.82399 8406 ft 262 kts 328°
2026-04-24 19:16 41.81889 44.80089 9991 ft 274 kts 327°
2026-04-24 19:16 41.83618 44.78850 10448 ft 292 kts 327°
2026-04-24 19:16 41.85474 44.77487 10716 ft 316 kts 326°
2026-04-24 19:17 41.87452 44.76021 11171 ft 330 kts 326°
2026-04-24 19:17 41.89479 44.74514 11859 ft 337 kts 325°
2026-04-24 19:17 41.91542 44.72978 12556 ft 342 kts 325°
2026-04-24 19:17 41.93642 44.71413 13242 ft 348 kts 324°
2026-04-24 19:18 41.95770 44.69827 13935 ft 353 kts 324°
2026-04-24 19:18 41.97931 44.68217 14557 ft 357 kts 324°
2026-04-24 19:18 42.00118 44.66588 15189 ft 361 kts 323°
2026-04-24 19:18 42.02323 44.64940 15811 ft 365 kts 323°
2026-04-24 19:19 42.04550 44.63267 16416 ft 369 kts 323°
2026-04-24 19:19 42.06775 44.61590 17043 ft 373 kts 322°
2026-04-24 19:19 42.09055 44.59872 17611 ft 378 kts 322°
2026-04-24 19:19 42.11394 44.58111 18200 ft 383 kts 322°
2026-04-24 19:20 42.13699 44.56377 18745 ft 387 kts 322°
2026-04-24 19:20 42.16059 44.54603 19352 ft 389 kts 322°
2026-04-24 19:20 42.18430 44.52821 19943 ft 392 kts 322°
2026-04-24 19:20 42.20818 44.51025 20541 ft 394 kts 322°
2026-04-24 19:21 42.23219 44.49219 21146 ft 396 kts 321°
2026-04-24 19:21 42.25635 44.47396 21729 ft 398 kts 321°
2026-04-24 19:21 42.28061 44.45562 22242 ft 400 kts 321°
2026-04-24 19:21 42.30494 44.43718 22813 ft 403 kts 321°
2026-04-24 19:22 42.32151 44.42460 23185 ft 405 kts 321°
2026-04-24 19:22 42.35425 44.39975 23834 ft 409 kts 321°
2026-04-24 19:22 42.37915 44.38084 24237 ft 412 kts 321°
2026-04-24 19:22 42.40420 44.36185 24648 ft 413 kts 321°
2026-04-24 19:23 42.42933 44.34284 25028 ft 415 kts 320°
2026-04-24 19:23 42.45455 44.32371 25390 ft 416 kts 320°
2026-04-24 19:23 42.47984 44.30449 25748 ft 417 kts 320°
2026-04-24 19:23 42.50522 44.28514 26163 ft 420 kts 320°
2026-04-24 19:24 42.53073 44.26564 26604 ft 421 kts 320°
2026-04-24 19:24 42.55627 44.24609 27010 ft 422 kts 320°
2026-04-24 19:24 42.58191 44.22645 27434 ft 425 kts 320°
2026-04-24 19:24 42.60768 44.20672 27829 ft 427 kts 321°
2026-04-24 19:25 42.63509 44.18964 28212 ft 440 kts 330°
2026-04-24 19:25 42.66490 44.17815 28519 ft 451 kts 338°
2026-04-24 19:25 42.69559 44.16902 28899 ft 452 kts 338°
2026-04-24 19:25 42.72638 44.15979 29253 ft 453 kts 338°
2026-04-24 19:26 42.75725 44.15048 29590 ft 454 kts 338°
2026-04-24 19:26 42.78809 44.14112 29911 ft 456 kts 339°
2026-04-24 19:26 42.81912 44.13161 30204 ft 458 kts 339°
2026-04-24 19:26 42.85020 44.12210 30500 ft 457 kts 339°
2026-04-24 19:27 42.88122 44.11268 30804 ft 456 kts 339°
2026-04-24 19:27 42.91217 44.10328 31104 ft 455 kts 339°
2026-04-24 19:27 42.94311 44.09384 31359 ft 455 kts 339°
2026-04-24 19:27 42.97399 44.08441 31645 ft 455 kts 339°
2026-04-24 19:28 43.00491 44.07493 31941 ft 455 kts 339°
2026-04-24 19:28 43.03576 44.06545 32240 ft 455 kts 339°
2026-04-24 19:28 43.06658 44.05596 32541 ft 455 kts 338°
2026-04-24 19:28 43.09745 44.04642 32818 ft 455 kts 338°
2026-04-24 19:29 43.15888 44.02748 33354 ft 456 kts 338°
2026-04-24 19:29 43.18985 44.01797 33626 ft 456 kts 338°
2026-04-24 19:29 43.22087 44.00839 33903 ft 457 kts 338°
2026-04-24 19:30 43.25186 43.99876 34121 ft 458 kts 338°
2026-04-24 19:30 43.28293 43.98906 34340 ft 458 kts 338°
2026-04-24 19:30 43.31401 43.97929 34541 ft 459 kts 338°
2026-04-24 19:30 43.34526 43.96944 34731 ft 460 kts 338°
2026-04-24 19:31 43.37649 43.95959 34938 ft 461 kts 338°
2026-04-24 19:31 43.40776 43.94980 35142 ft 461 kts 338°
2026-04-24 19:31 43.43904 43.94003 35348 ft 461 kts 338°
2026-04-24 19:31 43.47037 43.93027 35556 ft 461 kts 338°
2026-04-24 19:32 43.50163 43.92056 35750 ft 461 kts 339°
2026-04-24 19:32 43.53294 43.91086 35965 ft 461 kts 339°
2026-04-24 19:32 43.56421 43.90112 36158 ft 461 kts 339°
2026-04-24 19:32 43.59549 43.89127 36354 ft 460 kts 339°
2026-04-24 19:33 43.62664 43.88142 36551 ft 460 kts 339°
2026-04-24 19:33 43.65784 43.87154 36738 ft 460 kts 339°
2026-04-24 19:33 43.68901 43.86170 36925 ft 459 kts 339°
2026-04-24 19:33 43.72015 43.85191 37101 ft 459 kts 339°
2026-04-24 19:34 43.75128 43.84213 37283 ft 459 kts 339°
2026-04-24 19:34 43.78250 43.83228 37453 ft 459 kts 339°
2026-04-24 19:34 43.81355 43.82246 37619 ft 459 kts 340°
2026-04-24 19:34 43.84469 43.81259 37788 ft 459 kts 340°
2026-04-24 19:35 43.87581 43.80272 37934 ft 459 kts 340°
2026-04-24 19:35 43.93824 43.78297 37963 ft 461 kts 340°
2026-04-24 19:36 44.00077 43.76323 37962 ft 461 kts 340°
2026-04-24 19:36 44.06341 43.74342 37960 ft 461 kts 340°
2026-04-24 19:37 44.12600 43.72357 37965 ft 462 kts 340°
2026-04-24 19:37 44.18862 43.70359 37972 ft 462 kts 340°
2026-04-24 19:38 44.25129 43.68361 37980 ft 462 kts 340°
2026-04-24 19:38 44.31402 43.66368 37987 ft 462 kts 340°
2026-04-24 19:39 44.37678 43.64371 37988 ft 463 kts 340°
2026-04-24 19:39 44.43952 43.62365 37995 ft 463 kts 340°
2026-04-24 19:40 44.50231 43.60335 37999 ft 463 kts 340°
2026-04-24 19:40 44.56512 43.58310 38002 ft 463 kts 340°
2026-04-24 19:41 44.62798 43.56302 37993 ft 463 kts 340°
2026-04-24 19:41 44.69086 43.54288 37999 ft 463 kts 340°
2026-04-24 19:42 44.75368 43.52253 37995 ft 463 kts 340°
2026-04-24 19:42 44.81657 43.50216 38000 ft 463 kts 340°
2026-04-24 19:43 44.87943 43.48197 37994 ft 463 kts 340°
2026-04-24 19:43 44.94227 43.46169 37994 ft 463 kts 340°
2026-04-24 19:44 45.00511 43.44125 37993 ft 463 kts 340°
2026-04-24 19:44 45.06840 43.42308 37997 ft 469 kts 348°
2026-04-24 19:45 45.13441 43.42872 37992 ft 484 kts
2026-04-24 19:45 45.20045 43.44701 37989 ft 484 kts
2026-04-24 19:46 45.26654 43.46520 37981 ft 484 kts
2026-04-24 19:46 45.33233 43.48336 37982 ft 484 kts
2026-04-24 19:47 45.39850 43.50161 37980 ft 484 kts
2026-04-24 19:47 45.45399 43.51707 37977 ft 484 kts
2026-04-24 19:48 45.52012 43.53553 37978 ft 484 kts
2026-04-24 19:48 45.61894 43.56309 37977 ft 484 kts
2026-04-24 19:49 45.75122 43.60038 37964 ft 484 kts
2026-04-24 19:50 45.88337 43.63771 37960 ft 484 kts
2026-04-24 19:51 45.98253 43.66573 37961 ft 484 kts
2026-04-24 19:52 46.08142 43.69643 37954 ft 485 kts
2026-04-24 19:52 46.14710 43.71931 37949 ft 486 kts
2026-04-24 19:53 46.21280 43.74194 37947 ft 485 kts
2026-04-24 19:54 46.31147 43.77484 37757 ft 484 kts
2026-04-24 19:54 46.34427 43.78576 37146 ft 483 kts
2026-04-24 19:54 46.37252 43.79524 36945 ft 484 kts
2026-04-24 19:55 46.42707 43.81364 36928 ft 486 kts
2026-04-24 19:55 46.50408 43.83978 36918 ft 486 kts
2026-04-24 19:56 46.57000 43.86219 36918 ft 486 kts
2026-04-24 19:56 46.63550 43.88454 36915 ft 487 kts
2026-04-24 19:57 46.70137 43.90709 36918 ft 486 kts
2026-04-24 19:57 46.76768 43.92971 36917 ft 486 kts
2026-04-24 19:58 46.83365 43.95234 36920 ft 487 kts
2026-04-24 19:58 46.89955 43.97502 36925 ft 486 kts
2026-04-24 19:59 46.96534 43.99773 36926 ft 486 kts
2026-04-24 19:59 47.03091 44.02052 36922 ft 486 kts
2026-04-24 20:00 47.09671 44.04359 36915 ft 486 kts
2026-04-24 20:00 47.16248 44.06676 36910 ft 486 kts
2026-04-24 20:01 47.22828 44.08990 36910 ft 486 kts
2026-04-24 20:01 47.29405 44.11298 36907 ft 486 kts
2026-04-24 20:02 47.34866 44.13219 36898 ft 486 kts
2026-04-24 20:02 47.42556 44.15943 36884 ft 486 kts
2026-04-24 20:03 47.49126 44.18266 36880 ft 487 kts
2026-04-24 20:03 47.55767 44.20622 36855 ft 494 kts
2026-04-24 20:04 47.62490 44.23033 36854 ft 499 kts
2026-04-24 20:04 47.69261 44.25475 36852 ft 502 kts
2026-04-24 20:05 47.76074 44.27920 36844 ft 503 kts
2026-04-24 20:05 47.82827 44.30345 36835 ft 503 kts
2026-04-24 20:06 47.89636 44.32802 36838 ft 503 kts
2026-04-24 20:06 47.96417 44.35420 36834 ft 505 kts 11°
2026-04-24 20:07 48.02048 44.38101 36832 ft 507 kts 14°
2026-04-24 20:07 48.09808 44.42092 36825 ft 507 kts 14°
2026-04-24 20:08 48.16505 44.45420 36824 ft 507 kts 13°
2026-04-24 20:08 48.23213 44.48639 36818 ft 506 kts 13°
2026-04-24 20:09 48.29931 44.51860 36813 ft 506 kts 13°
2026-04-24 20:09 48.36632 44.55128 36809 ft 506 kts 13°
2026-04-24 20:10 48.43329 44.58425 36804 ft 506 kts 14°
2026-04-24 20:10 48.50025 44.61724 36800 ft 506 kts 14°
2026-04-24 20:11 48.56725 44.65018 36797 ft 506 kts 14°
2026-04-24 20:11 48.63417 44.68309 36797 ft 506 kts 14°
2026-04-24 20:12 48.70099 44.71615 36791 ft 506 kts 14°
2026-04-24 20:12 48.76783 44.74948 36787 ft 505 kts 14°
2026-04-24 20:13 48.83465 44.78289 36775 ft 505 kts 14°
2026-04-24 20:13 48.90186 44.81355 36768 ft 503 kts 11°
2026-04-24 20:14 48.96963 44.84086 36755 ft 503 kts 10°
2026-04-24 20:14 49.03728 44.86807 36748 ft 503 kts 11°
2026-04-24 20:15 49.10477 44.89648 36750 ft 503 kts 12°
2026-04-24 20:15 49.17223 44.92542 36748 ft 503 kts 12°
2026-04-24 20:16 49.23925 44.95413 36739 ft 503 kts 12°
2026-04-24 20:16 49.30710 44.98302 36736 ft 503 kts 12°
2026-04-24 20:17 49.37409 45.01157 36728 ft 503 kts 12°
2026-04-24 20:17 49.47519 45.05490 36717 ft 503 kts 12°
2026-04-24 20:18 49.54262 45.08390 36712 ft 502 kts 12°
2026-04-24 20:18 49.60986 45.11294 36710 ft 502 kts 12°
2026-04-24 20:19 49.67712 45.14219 36701 ft 502 kts 12°
2026-04-24 20:19 49.74428 45.17155 36698 ft 502 kts 12°
2026-04-24 20:20 49.81150 45.20097 36689 ft 502 kts 12°
2026-04-24 20:20 49.87862 45.23042 36694 ft 501 kts 12°
2026-04-24 20:21 49.94573 45.25998 36675 ft 501 kts 12°
2026-04-24 20:21 50.01276 45.28958 36671 ft 501 kts 12°
2026-04-24 20:22 50.08022 45.31584 36661 ft 499 kts
2026-04-24 20:22 50.14825 45.33757 36655 ft 498 kts
2026-04-24 20:23 50.21612 45.35896 36650 ft 498 kts
2026-04-24 20:23 50.28391 45.38192 36645 ft 498 kts
2026-04-24 20:24 50.35163 45.40557 36640 ft 498 kts
2026-04-24 20:24 50.41891 45.42889 36633 ft 498 kts
2026-04-24 20:25 50.48652 45.45213 36627 ft 497 kts
2026-04-24 20:25 50.55421 45.47544 36618 ft 497 kts
2026-04-24 20:26 50.62175 45.49881 36608 ft 497 kts
2026-04-24 20:26 50.68932 45.52236 36605 ft 497 kts
2026-04-24 20:27 50.75683 45.54597 36600 ft 497 kts
2026-04-24 20:27 50.82435 45.56968 36594 ft 497 kts 10°
2026-04-24 20:28 50.89185 45.59391 36588 ft 497 kts 10°
2026-04-24 20:28 50.94786 45.61409 36582 ft 497 kts 10°
2026-04-24 20:29 51.01525 45.63866 36572 ft 498 kts 13°
2026-04-24 20:29 51.07968 45.68012 36566 ft 501 kts 23°
2026-04-24 20:30 51.14273 45.72739 36559 ft 501 kts 23°
2026-04-24 20:30 51.20575 45.77487 36552 ft 501 kts 24°
2026-04-24 20:31 51.26884 45.82242 36550 ft 501 kts 24°
2026-04-24 20:31 51.33190 45.87006 36548 ft 501 kts 24°
2026-04-24 20:32 51.39487 45.91783 36542 ft 501 kts 24°
2026-04-24 20:32 51.45784 45.96588 36532 ft 501 kts 24°
2026-04-24 20:33 51.48790 45.99443 36522 ft 503 kts 38°
2026-04-24 20:33 51.51297 46.03334 36521 ft 503 kts 49°
2026-04-24 20:33 51.55813 46.11805 36507 ft 503 kts 49°
2026-04-24 20:34 51.60344 46.20396 36503 ft 504 kts 50°
2026-04-24 20:34 51.64908 46.29052 36501 ft 504 kts 50°
2026-04-24 20:35 51.69402 46.37625 36500 ft 504 kts 50°
2026-04-24 20:35 51.73966 46.46337 36502 ft 505 kts 50°
2026-04-24 20:36 51.78466 46.54932 36504 ft 505 kts 50°
2026-04-24 20:36 51.82997 46.63624 36503 ft 505 kts 50°
2026-04-24 20:37 51.87516 46.72343 36510 ft 506 kts 50°
2026-04-24 20:37 51.92030 46.81073 36507 ft 506 kts 50°
2026-04-24 20:38 51.96540 46.89824 36510 ft 506 kts 50°
2026-04-24 20:38 52.01045 46.98591 36508 ft 506 kts 50°
2026-04-24 20:39 52.05544 47.07379 36507 ft 506 kts 50°
2026-04-24 20:39 52.10038 47.16188 36511 ft 506 kts 51°
2026-04-24 20:40 52.14525 47.25024 36513 ft 506 kts 51°
2026-04-24 20:40 52.19004 47.33880 36512 ft 506 kts 51°
2026-04-24 20:41 52.23474 47.42744 36432 ft 508 kts 51°
2026-04-24 20:41 52.25729 47.47224 35464 ft 513 kts 51°
2026-04-24 20:41 52.27975 47.51697 34729 ft 508 kts 51°
2026-04-24 20:42 52.30207 47.56151 33933 ft 505 kts 51°
2026-04-24 20:42 52.32426 47.60581 33005 ft 501 kts 51°
2026-04-24 20:42 52.34623 47.64976 31388 ft 499 kts 51°
2026-04-24 20:42 52.36825 47.69389 29833 ft 502 kts 51°
2026-04-24 20:43 52.39041 47.73842 29106 ft 508 kts 51°
2026-04-24 20:43 52.41277 47.78341 28438 ft 510 kts 51°
2026-04-24 20:43 52.43510 47.82837 27179 ft 506 kts 51°
2026-04-24 20:43 52.45724 47.87304 25704 ft 504 kts 50°
2026-04-24 20:44 52.47927 47.91756 24244 ft 502 kts 50°
2026-04-24 20:44 52.50118 47.96192 23048 ft 496 kts 50°
2026-04-24 20:44 52.52267 48.00554 21958 ft 486 kts 50°
2026-04-24 20:44 52.54367 48.04832 20970 ft 478 kts 50°
2026-04-24 20:45 52.56432 48.09043 20041 ft 470 kts 50°